Home   Weather   Victorville   Past weeks

Flag for USA Past Weather in Victorville, California, USA — Yesterday and Last 2 Weeks

Now
57 °F

Clear.


Feels Like: 52 °F
Forecast: 47 / 70 °F
Wind: 25 mph from West

Location: George Air Force Base / Victorvi

Current Time: Apr 24, 2017 at 10:06:25 pm

Latest Report: Apr 24, 2017 at 9:35 pm


Visibility: 10 mi

Pressure: 29.86 "Hg (27.05 "Hg at 830m altitude)

Humidity: 51%

Dew Point: 39 °F

Location of VictorvilleLocation

Past Weather in Victorville — Graph

°F

Victorville Temperature Yesterday

Maximum temperature yesterday: 82 °F (at 1:35 pm)
Minimum temperature yesterday: 52 °F (at 6:15 am)
Average temperature yesterday: 66 °F

High & Low Weather Summary for the Past Weeks

 TemperatureHumidityPressure
High88 °F (Apr 22, 2:55 pm)94% (Apr 19, 1:35 am)30.19 "Hg (Apr 19, 1:35 am)
Low36 °F (Apr 10, 3:55 am)9% (Apr 10, 3:35 pm)29.81 "Hg (Apr 23, 4:35 pm)
Average61 °F39%30.01 "Hg
* Reported Apr 9 8:15 pm — Apr 24 8:55 pm, Victorville, Weather by CustomWeather, © 2017

Note: Actual official high and low records may vary slightly from our data, if they occured in-between our weather recording intervals... More about our weather records

Advertising

Victorville Weather History for the Previous 24 Hours

Scroll right to see more
 ConditionsComfort  
Time TempWeatherWind HumidityBarometerVisibility
8:55 pm
Mon, Apr 24
57 °FClear.28 mph48%29.84 "Hg10 mi
8:35 pm57 °FClear.36 mph48%29.83 "Hg10 mi
8:15 pm59 °FClear.33 mph42%29.82 "Hg10 mi
7:55 pm59 °FClear.31 mph42%29.83 "Hg10 mi
7:35 pm61 °FClear.31 mph39%29.83 "Hg10 mi
7:15 pm61 °FSunny.33 mph36%29.82 "Hg10 mi
6:55 pm63 °FScattered clouds.30 mph34%29.83 "Hg10 mi
6:15 pm63 °FScattered clouds.28 mph32%29.83 "Hg10 mi
5:55 pm64 °FScattered clouds.30 mph28%29.83 "Hg10 mi
5:15 pm66 °FScattered clouds.30 mph24%29.84 "Hg10 mi
4:55 pm64 °FScattered clouds.32 mph26%29.84 "Hg10 mi
4:35 pm66 °FScattered clouds.28 mph24%29.85 "Hg10 mi
4:15 pm68 °FScattered clouds.25 mph21%29.86 "Hg10 mi
3:55 pm68 °FScattered clouds.33 mph23%29.85 "Hg10 mi
3:35 pm70 °FScattered clouds.29 mph21%29.85 "Hg10 mi
3:15 pm70 °FScattered clouds.32 mph21%29.85 "Hg10 mi
2:55 pm70 °FScattered clouds.30 mph21%29.86 "Hg10 mi
2:35 pm70 °FScattered clouds.31 mph21%29.88 "Hg10 mi
2:15 pm72 °FScattered clouds.29 mph20%29.88 "Hg10 mi
1:55 pm70 °FScattered clouds.29 mph21%29.89 "Hg10 mi
1:35 pm70 °FScattered clouds.26 mph21%29.91 "Hg7 mi
12:55 pm70 °FScattered clouds.25 mph20%29.91 "Hg10 mi
12:35 pm66 °FScattered clouds.26 mph22%29.92 "Hg10 mi
12:15 pm66 °FScattered clouds.25 mph24%29.92 "Hg10 mi
11:55 am66 °FScattered clouds.26 mph22%29.92 "Hg10 mi
11:35 am64 °FScattered clouds.25 mph24%29.92 "Hg10 mi
11:15 am63 °FScattered clouds.25 mph30%29.92 "Hg10 mi
10:55 am61 °FScattered clouds.26 mph31%29.93 "Hg10 mi
10:35 am61 °FScattered clouds.24 mph31%29.93 "Hg10 mi
10:15 am59 °FScattered clouds.29 mph34%29.93 "Hg10 mi
9:55 am59 °FScattered clouds.29 mph34%29.91 "Hg10 mi
9:35 am59 °FScattered clouds.33 mph34%29.91 "Hg10 mi
9:15 am61 °FSunny.26 mph34%29.91 "Hg10 mi
8:55 am59 °FScattered clouds.25 mph39%29.90 "Hg10 mi
8:35 am57 °FScattered clouds.29 mph41%29.89 "Hg10 mi
8:15 am55 °FScattered clouds.25 mph47%29.89 "Hg10 mi
7:55 am55 °FScattered clouds.24 mph47%29.88 "Hg10 mi
7:35 am54 °FScattered clouds.31 mph51%29.86 "Hg10 mi
7:15 am54 °FScattered clouds.25 mph51%29.87 "Hg10 mi
6:55 am54 °FSunny.25 mph51%29.87 "Hg10 mi
6:35 am52 °FSunny.25 mph54%29.85 "Hg10 mi
6:15 am52 °FSunny.17 mph54%29.86 "Hg10 mi
5:55 am52 °FClear.20 mph54%29.87 "Hg10 mi
5:35 am52 °FClear.17 mph54%29.86 "Hg10 mi
5:15 am52 °FClear.23 mph54%29.86 "Hg10 mi
4:55 am52 °FClear.14 mph50%29.86 "Hg10 mi
4:35 am54 °FClear.8 mph44%29.88 "Hg10 mi
3:55 am54 °FClear.No wind41%29.87 "Hg10 mi
3:35 am55 °FClear.No wind36%29.87 "Hg10 mi
3:15 am54 °FClear.7 mph38%29.84 "Hg10 mi
2:55 am55 °FClear.9 mph33%29.83 "Hg10 mi
2:35 am55 °FClear.15 mph33%29.83 "Hg10 mi
2:15 am55 °FClear.23 mph33%29.84 "Hg10 mi
1:55 am55 °FClear.16 mph36%29.86 "Hg10 mi
1:35 am55 °FClear.23 mph36%29.86 "Hg10 mi
1:15 am55 °FClear.14 mph36%29.87 "Hg10 mi
12:55 am55 °FClear.16 mph33%29.86 "Hg10 mi
12:35 am55 °FClear.12 mph36%29.86 "Hg10 mi
12:15 am55 °FClear.18 mph38%29.86 "Hg10 mi
11:55 pm
Sun, Apr 23
57 °FClear.18 mph39%29.88 "Hg10 mi
11:35 pm57 °FClear.17 mph41%29.89 "Hg10 mi
11:15 pm57 °FClear.21 mph44%29.89 "Hg10 mi
10:55 pm57 °FClear.21 mph48%29.88 "Hg10 mi
10:35 pm57 °FClear.17 mph48%29.88 "Hg10 mi
10:15 pm57 °FClear.16 mph48%29.89 "Hg10 mi
Weather by CustomWeather, © 2017

See weather overviewHow to use our weather pages